Location: Plainartige
(45.6866°N, 1.7993°E)
Time: 21:11:50
(UTC+00:00)

Vanguard 1 - Visible Passes

Search period start: 24 May 2022 00:00
Search period end: 03 June 2022 00:00
Orbit: 648 x 3833 km, 34.3° (Epoch: 23 May)

Date Brightness Start Highest point End Pass type
(mag) Time Alt. Az. Time Alt. Az. Time Alt. Az.
24 May 12.8 02:08:27 18° SW 02:21:49 54° SSE 02:44:01 10° E visible
25 May 12.5 00:14:42 30° S 00:19:52 35° SE 00:37:46 10° E visible
25 May 12.8 02:27:20 13° WSW 02:42:37 57° SSE 03:05:11 10° E visible
25 May 13.1 22:20:56 14° ESE 22:20:56 14° ESE 22:27:35 10° E visible
26 May 12.4 00:33:34 30° S 00:40:07 41° SSE 00:59:19 10° E visible
26 May 12.8 02:46:48 10° WSW 03:03:30 59° S 03:26:16 10° ESE visible
26 May 12.8 22:39:46 20° SE 22:40:14 20° SE 22:51:03 10° E visible
27 May 12.4 00:52:23 28° SSW 01:00:32 47° SSE 01:20:44 10° E visible
27 May 12.9 03:07:26 10° WSW 03:24:26 60° S 03:47:16 10° ESE visible
27 May 12.5 22:58:34 25° SE 23:00:07 26° SE 23:13:25 10° E visible
28 May 12.5 01:11:11 23° SW 01:21:07 52° SSE 01:42:02 10° E visible
28 May 12.9 03:28:08 10° WSW 03:45:25 59° S 04:08:09 10° ESE visible
28 May 12.2 23:17:19 30° SSE 23:20:08 32° SE 23:35:18 10° E visible
29 May 12.5 01:29:55 17° SW 01:41:49 55° SSE 02:03:16 10° E visible
29 May 13.0 21:23:24 10° ESE 21:23:24 10° ESE 21:23:26 10° ESE visible
29 May 12.1 23:36:01 31° S 23:40:19 38° SSE 23:56:54 10° E visible
30 May 12.5 01:48:37 10° WSW 02:02:37 57° S 02:24:26 10° ESE visible
30 May 12.7 21:42:02 16° SE 21:42:02 16° SE 21:48:30 10° E visible
30 May 12.1 23:54:37 29° SSW 00:00:40 44° SSE 00:18:20 10° E visible
31 May 12.6 02:09:11 10° WSW 02:23:28 58° S 02:45:29 10° ESE visible
31 May 12.3 22:00:32 21° SE 22:01:05 22° SE 22:11:04 10° E visible
01 Jun 12.1 00:13:07 22° SW 00:21:09 48° SSE 00:39:40 10° E visible
01 Jun 12.6 02:29:49 10° WSW 02:44:22 57° S 03:06:26 10° ESE visible
01 Jun 11.9 22:18:52 26° SSE 22:21:05 27° SE 22:33:00 10° E visible
02 Jun 12.1 00:31:25 14° SW 00:41:45 52° SSE 01:00:55 10° E visible
02 Jun 12.7 02:50:30 10° W 03:05:17 54° S 03:27:13 10° ESE visible
02 Jun 11.9 22:36:47 25° S 22:41:13 33° SE 22:54:36 10° E visible
